Weather History for Bishop, CA

Change the Weather History Date:

Friday, October 11, 2013

  Actual Average Record
Temperature  
Mean Temperature 52 °F 59 °F  
Max Temperature 70 °F 78 °F 91 °F (1971)
Min Temperature 33 °F 39 °F 27 °F (2000)
Degree Days  
Heating Degree Days 13 7  
Month to date heating degree days 107 57  
Since 1 July heating degree days 163 100  
Cooling Degree Days 0 0  
Month to date cooling degree days 0 7  
Year to date cooling degree days 1337 1103  
Growing Degree Days 2 (Base 50)    
Moisture  
Dew Point 32 °F    
Average Humidity 52    
Maximum Humidity 82    
Minimum Humidity 22    
Precipitation  
Precipitation 0.00 in 0.01 in 0.42 in (2012)
Month to date precipitation 0.13 0.10  
Year to date precipitation 1.24 3.66  
Snow  
Snow 0.00 in 0.00 in T in (2008)
Month to date snowfall 0.0 0.0  
Since 1 July snowfall 0.0 0.0  
Since 1 September snowfall 0.0 0.0  
Snow Depth 0.00 in    
Sea Level Pressure  
Sea Level Pressure 29.97 in    
Wind  
Wind Speed 7 mph (WNW)    
Max Wind Speed 16 mph    
Max Gust Speed 22 mph    
Visibility 10 miles    
Events      
T = Trace of Precipitation, MM = Missing Value Source: NWS Daily Summary

Daily Weather History Graph

Daily Weather History Graph

Search for Another Location

Airport:

Trip Planner

Search our weather history database for the weather conditions in past years. The results will help you decide how hot, cold, wet, or windy it might be!

Date:

Astronomy

Oct. 11, 2013 Rise Set
Actual Time 6:58 AM PDT 6:21 PM PDT
Civil Twilight 6:31 AM PDT 6:47 PM PDT
Nautical Twilight 6:01 AM PDT 7:17 PM PDT
Astronomical Twilight 5:31 AM PDT 7:48 PM PDT
Moon 1:39 PM PDT (10/11) No Moon Set
Length of Visible Light 12h 15m
Length of Day
11h 23m
Waxing Crescent, 48% of the Moon is Illuminated
Oct 11
Waxing Crescent
Oct 11
First Quarter
Oct 18
Full
Oct 26
Last Quarter
Nov 3
New

Hourly Weather History & Observations

Time (PDT) Temp. Windchill Dew Point Humidity Pressure Visibility Wind Dir Wind Speed Gust Speed Precip Events Conditions
12:56 AM 41.0 °F 38.0 °F 34.0 °F 76% 29.97 in 10.0 mi NW 4.6 mph - N/A   Clear
1:56 AM 39.0 °F 34.8 °F 33.1 °F 79% 29.98 in 10.0 mi NNW 5.8 mph - N/A   Clear
2:56 AM 37.0 °F 33.3 °F 32.0 °F 82% 29.97 in 10.0 mi NNW 4.6 mph - N/A   Clear
3:56 AM 37.9 °F 32.1 °F 32.0 °F 79% 29.99 in 10.0 mi WNW 8.1 mph - N/A   Clear
4:56 AM 36.0 °F 30.3 °F 30.0 °F 79% 30.01 in 10.0 mi North 6.9 mph - N/A   Clear
5:56 AM 33.1 °F 30.0 °F 28.9 °F 85% 30.03 in 10.0 mi NNW 3.5 mph - N/A   Clear
6:56 AM 36.0 °F 30.3 °F 30.9 °F 82% 30.05 in 10.0 mi NW 6.9 mph - N/A   Clear
7:56 AM 39.9 °F 37.8 °F 33.1 °F 77% 30.06 in 10.0 mi NNW 3.5 mph - N/A   Clear
8:56 AM 48.0 °F - 33.1 °F 56% 30.06 in 10.0 mi NNW 4.6 mph - N/A   Clear
9:56 AM 55.0 °F - 34.0 °F 45% 30.04 in 10.0 mi Calm Calm - N/A   Clear
10:56 AM 59.0 °F - 33.1 °F 38% 30.04 in 10.0 mi Calm Calm - N/A   Clear
11:56 AM 62.1 °F - 32.0 °F 32% 30.01 in 10.0 mi Variable 3.5 mph - N/A   Clear
12:56 PM 64.9 °F - 32.0 °F 29% 29.97 in 10.0 mi Variable 4.6 mph - N/A   Clear
1:56 PM 68.0 °F - 30.9 °F 25% 29.94 in 10.0 mi South 8.1 mph - N/A   Clear
2:56 PM 69.1 °F - 30.9 °F 24% 29.92 in 10.0 mi SSE 11.5 mph 17.3 mph N/A   Clear
3:56 PM 69.1 °F - 28.0 °F 22% 29.91 in 10.0 mi SSE 11.5 mph - N/A   Clear
4:56 PM 68.0 °F - 30.0 °F 24% 29.90 in 10.0 mi South 15.0 mph - N/A   Clear
5:56 PM 64.9 °F - 30.9 °F 28% 29.91 in 10.0 mi South 13.8 mph 19.6 mph N/A   Clear
6:56 PM 61.0 °F - 32.0 °F 34% 29.91 in 10.0 mi SSE 11.5 mph - N/A   Clear
7:56 PM 59.0 °F - 30.9 °F 35% 29.93 in 10.0 mi SSE 10.4 mph - N/A   Clear
8:56 PM 55.9 °F - 32.0 °F 40% 29.93 in 10.0 mi South 8.1 mph - N/A   Clear
9:56 PM 53.1 °F - 33.1 °F 47% 29.94 in 10.0 mi South 4.6 mph - N/A   Clear
10:56 PM 46.0 °F 43.9 °F 32.0 °F 58% 29.96 in 10.0 mi NNW 4.6 mph - N/A   Clear
11:56 PM 45.0 °F 41.8 °F 30.0 °F 56% 29.95 in 10.0 mi NNW 5.8 mph - N/A   Clear